Weather in Panarino

Russia / Tula Oblast     53°29′04″N   37°50′36″E
temp.,
°C
wind,
m/s
gust,
m/s
humid.,
%
clouds,
%
prec.,
mm/h
press.,
hPa
HPBL,
m
16 may, sun
sun1600:00+13ssw38930 0.0 1012173
03:00+12ssw35940 0.0 101380
06:00+13ssw24895 0.0 101397
09:00+18s347033 0.0 1014436
12:00+21ssw35554 0.1 10141485
15:00+22ssw4654100 0.1 10141605
18:00+21sw1166100 0.0 1013130
21:00+16e227384 0.0 101411
17 may, mon
mon1700:00+15ene338053 0.0 101440
03:00+14e377959 0.1 1013114
06:00+14e51290100 1.5 1013254
09:00+20e69756 1.5 1012402
12:00+23ese6959100 0.0 1012739
15:00+25ese611570 0.0 10101199
18:00+23ese713655 0.0 1009708
21:00+19ese617760 0.0 1009489
18 may, tue
tue1800:00+18se617725 0.0 1009432
03:00+16se5147492 0.0 1009294
06:00+15se5127948 0.0 1009263
09:00+19se61167100 0.0 1009449
12:00+23sse7115482 0.0 1009886
15:00+24se51052100 0.0 10081322
18:00+22se5116786 0.0 1007525
21:00+18ese41185100 0.0 1006190
19 may, wed
wed1900:00+16ese49895 0.0 1006181
03:00+16ese614725 0.0 1005351
06:00+15sse4108491 0.1 1005289
09:00+18sse5876100 0.1 1005681
12:00+19sse71169100 0.2 10051387
15:00+18sse697594 0.6 10051031
18:00+17sse697953 1.0 10051003
21:00+13sse389118 1.1 1005199
20 may, thu
thu2000:00+12se3891100 0.0 1005217
03:00+10sse37965 0.0 1005185
06:00+10sse5996100 0.0 1005450
09:00+12s5890100 1.6 1004642
12:00+12ssw6118689 1.7 1006961
15:00+11sw71089100 2.1 1008998
18:00+11sw71386100 0.1 10091109
21:00+11sw61286100 0.3 1011802